CW5834 Weather Reports


Display with metric or nautical units.
time (UTC)temp
F
wind
direction
speed
MPH
gust
MPH
rain 1hr
in
rain 24hr
in
rain mn
in
humidity
%
barometer
mb
20181113011018 42 0.0 0.0 0.00 0.84 0.75 92 1020.4
20181113010021 42 0.0 0.0 0.00 0.84 0.75 92 1020.1
20181113005015 42 0.0 0.0 0.00 0.84 0.75 92 1020.3
20181113004021 42 0.0 0.0 0.00 0.84 0.75 92 1020.7
20181113003020 42 0.0 3.0 0.00 0.84 0.75 91 1020.6
20181113002020 42 313 3.0 7.0 0.00 0.84 0.75 91 1020.5
20181113001021 43 309 0.0 5.0 0.00 0.84 0.75 90 1020.2
20181113000020 44 0.0 0.0 0.00 0.84 0.75 91 1019.7
20181112235020 43 0.0 0.0 0.00 0.84 0.75 91 1019.5
20181112234015 43 62 0.0 3.0 0.00 0.84 0.75 91 1019.5
20181112233020 43 0.0 1.0 0.00 0.84 0.75 91 1019.8
20181112232021 43 13 0.0 5.0 0.00 0.84 0.75 91 1019.8
20181112231021 43 31 1.0 7.0 0.00 0.84 0.75 91 1019.5
20181112230020 43 39 1.0 8.0 0.00 0.84 0.75 90 1019.8
20181112225021 43 52 2.0 8.0 0.00 0.84 0.75 91 1019.9
20181112224015 43 60 1.0 7.0 0.00 0.84 0.75 91 1020.1
20181112223015 42 59 1.0 7.0 0.00 0.84 0.75 91 1020.3
20181112222020 43 44 2.0 7.0 0.00 0.84 0.75 91 1020.6
20181112221020 42 72 0.0 10.0 0.01 0.84 0.75 90 1021.0
20181112220022 42 60 2.0 8.0 0.02 0.84 0.75 90 1020.8
20181112215017 42 43 1.0 10.0 0.04 0.84 0.75 91 1021.0
20181112214017 42 54 2.0 6.0 0.05 0.84 0.75 92 1020.9
20181112213022 41 53 0.0 4.0 0.07 0.84 0.75 92 1021.3
20181112212022 41 0.0 0.0 0.09 0.84 0.75 92 1021.5
20181112211022 41 0.0 0.0 0.10 0.83 0.74 92 1021.8
20181112210022 41 50 0.0 4.0 0.12 0.82 0.73 92 1021.9
20181112205022 41 0.0 0.0 0.13 0.80 0.71 92 1021.7
20181112204017 41 0.0 3.0 0.14 0.78 0.70 92 1021.8
20181112203017 41 355 0.0 1.0 0.13 0.76 0.68 92 1021.9
20181112202022 41 0.0 0.0 0.13 0.75 0.67 92 1022.0
20181112201022 40 0.0 0.0 0.13 0.73 0.65 92 1022.2
20181112200022 40 0.0 0.0 0.14 0.69 0.62 91 1022.5
20181112195020 40 0.0 0.0 0.14 0.66 0.59 91 1022.8
20181112194022 40 0.0 4.0 0.15 0.64 0.56 92 1022.6
20181112193017 40 37 1.0 5.0 0.19 0.63 0.56 91 1022.7
20181112192022 40 46 0.0 5.0 0.21 0.62 0.55 91 1022.7
20181112191022 40 33 0.0 4.0 0.22 0.59 0.53 91 1023.0
20181112190022 40 0.0 0.0 0.21 0.55 0.49 91 1023.4
20181112185022 40 0.0 0.0 0.21 0.51 0.46 91 1023.5
20181112184022 40 0.0 0.0 0.20 0.48 0.43 91 1023.6
20181112183022 40 32 0.0 3.0 0.18 0.43 0.39 90 1023.4
20181112182016 40 31 0.0 5.0 0.15 0.40 0.36 90 1023.6
20181112181022 40 0.0 0.0 0.14 0.37 0.33 89 1024.1
20181112180022 40 0.0 0.0 0.13 0.33 0.30 90 1024.1
20181112175022 40 0.0 0.0 0.12 0.30 0.27 89 1024.5
20181112174022 40 0.0 0.0 0.12 0.28 0.25 89 1024.7
20181112173022 40 0.0 0.0 0.12 0.25 0.23 89 1024.5
20181112172017 40 0.0 2.0 0.12 0.24 0.22 89 1024.5
20181112171016 40 0.0 0.0 0.11 0.22 0.20 88 1024.6
20181112170022 40 0.0 0.0 0.11 0.20 0.18 88 1024.5
20181112165021 40 29 0.0 3.0 0.10 0.18 0.16 87 1024.3
20181112164022 40 0.0 0.0 0.09 0.15 0.14 87 1024.3
20181112163022 40 0.0 0.0 0.07 0.13 0.12 86 1024.7
20181112162021 40 0.0 0.0 0.06 0.12 0.11 85 1024.8
20181112161017 40 0.0 0.0 0.06 0.11 0.10 83 1025.0
20181112160022 40 0.0 2.0 0.05 0.09 0.08 83 1025.1
20181112155022 40 0.0 0.0 0.05 0.07 0.07 82 1025.1
20181112154021 41 0.0 0.0 0.04 0.06 0.06 84 1024.9
20181112153022 41 0.0 0.0 0.04 0.05 0.05 81 1025.8
20181112152021 41 0.0 0.0 0.04 0.05 0.05 84 1025.7
20181112151021 41 0.0 0.0 0.03 0.04 0.04 82 1025.9
20181112150016 41 0.0 0.0 0.03 0.03 0.03 85 1026.1
20181112145021 41 0.0 0.0 0.02 0.02 0.02 85 1026.1
20181112144021 41 0.0 0.0 0.02 0.02 0.02 85 1026.0
20181112143021 41 0.0 0.0 0.01 0.01 0.01 85 1026.0
20181112142022 41 0.0 0.0 0.01 0.01 0.01 85 1026.0
20181112141021 41 0.0 0.0 0.01 0.01 0.01 84 1026.1
20181112140016 41 0.0 0.0 0.00 0.00 0.00 82 1026.0
20181112135016 41 0.0 0.0 0.00 0.00 0.00 79 1026.2
20181112134021 43 0.0 0.0 0.00 0.00 0.00 75 1026.3
20181112133021 43 0.0 0.0 0.00 0.00 0.00 72 1026.5
20181112132021 43 0.0 0.0 0.00 0.00 0.00 64 1026.6
20181112131021 43 0.0 0.0 0.00 0.00 0.00 70 1026.7
20181112130021 42 0.0 0.0 0.00 0.00 0.00 73 1026.4
20181112125016 42 0.0 0.0 0.00 0.00 0.00 73 1026.4
20181112124021 42 0.0 0.0 0.00 0.00 0.00 73 1026.4
20181112123021 41 0.0 0.0 0.00 0.00 0.00 72 1026.4
20181112122021 41 0.0 0.0 0.00 0.00 0.00 75 1026.4
20181112121021 41 0.0 0.0 0.00 0.00 0.00 74 1026.3
20181112120019 41 0.0 0.0 0.00 0.00 0.00 74 1026.6
20181112115021 41 0.0 0.0 0.00 0.00 0.00 76 1026.6
20181112114016 41 0.0 0.0 0.00 0.00 0.00 74 1027.0
20181112113021 41 0.0 0.0 0.00 0.00 0.00 72 1027.1
20181112112021 41 0.0 0.0 0.00 0.00 0.00 75 1027.0
20181112111021 41 0.0 0.0 0.00 0.00 0.00 73 1026.9
20181112110021 41 0.0 0.0 0.00 0.00 0.00 73 1026.8
20181112105021 41 0.0 0.0 0.00 0.00 0.00 72 1026.9
20181112104021 41 0.0 0.0 0.00 0.00 0.00 72 1027.2
20181112103016 41 0.0 0.0 0.00 0.00 0.00 74 1026.9
20181112102022 42 0.0 0.0 0.00 0.00 0.00 70 1027.2
20181112101021 42 0.0 0.0 0.00 0.00 0.00 69 1027.1
20181112100021 42 0.0 0.0 0.00 0.00 0.00 69 1027.2
20181112095021 41 0.0 0.0 0.00 0.00 0.00 74 1027.2
20181112094021 41 0.0 0.0 0.00 0.00 0.00 74 1027.1
20181112093016 41 0.0 0.0 0.00 0.00 0.00 75 1027.3
20181112092016 41 0.0 0.0 0.00 0.00 0.00 76 1027.1
20181112091021 40 0.0 0.0 0.00 0.00 0.00 76 1027.3
20181112090021 40 0.0 0.0 0.00 0.00 0.00 78 1027.3
20181112085021 40 0.0 0.0 0.00 0.00 0.00 78 1027.2
20181112084021 39 0.0 0.0 0.00 0.00 0.00 79 1027.5
20181112083020 39 0.0 0.0 0.00 0.00 0.00 80 1027.5
20181112082015 38 0.0 0.0 0.00 0.00 0.00 81 1027.4
20181112081020 38 0.0 0.0 0.00 0.00 0.00 80 1027.6
20181112080021 38 0.0 0.0 0.00 0.00 0.00 78 1027.7
20181112075021 38 0.0 0.0 0.00 0.00 0.00 79 1027.6
20181112074020 38 0.0 0.0 0.00 0.00 0.00 78 1027.7
20181112073021 38 0.0 0.0 0.00 0.00 0.00 79 1027.2
20181112072021 38 0.0 0.0 0.00 0.00 0.00 79 1027.2
20181112071015 38 0.0 0.0 0.00 0.00 0.00 77 1027.2
20181112070021 38 0.0 0.0 0.00 0.00 0.00 80 1026.9
20181112065020 38 0.0 0.0 0.00 0.00 0.00 81 1027.0
20181112064021 38 0.0 0.0 0.00 0.00 0.00 80 1027.0
20181112063021 38 0.0 0.0 0.00 0.00 0.00 80 1027.1
20181112062021 37 0.0 0.0 0.00 0.00 0.00 83 1027.2
20181112061015 37 0.0 0.0 0.00 0.00 0.00 81 1027.2
20181112060015 37 0.0 0.0 0.00 0.00 0.00 81 1027.3
20181112055021 37 0.0 0.0 0.00 0.00 0.00 81 1027.3
20181112054020 37 0.0 0.0 0.00 0.00 0.00 81 1027.4
20181112053020 37 0.0 0.0 0.00 0.00 0.00 81 1027.3
20181112052020 37 0.0 0.0 0.00 0.00 0.00 83 1027.3
20181112051020 37 0.0 0.0 0.00 0.00 0.00 81 1027.1
20181112050015 37 0.0 0.0 0.00 0.00 0.00 80 1027.0
20181112045016 38 0.0 0.0 0.00 0.00 0.00 76 1027.1
20181112044016 38 0.0 0.0 0.00 0.00 0.00 75 1027.0
20181112043021 37 0.0 0.0 0.00 0.00 0.00 76 1026.9
20181112042021 38 0.0 0.0 0.00 0.00 0.00 76 1027.0
20181112041021 38 0.0 0.0 0.00 0.00 0.00 74 1027.2
20181112040021 38 0.0 0.0 0.00 0.00 0.00 75 1027.1
20181112035021 38 0.0 0.0 0.00 0.00 0.00 78 1026.8
20181112034015 38 0.0 0.0 0.00 0.00 0.00 76 1027.2
20181112033016 38 0.0 0.0 0.00 0.00 0.00 79 1027.5
20181112032021 39 0.0 0.0 0.00 0.00 0.00 78 1027.3
20181112031020 39 0.0 0.0 0.00 0.00 0.00 74 1027.1
20181112030021 40 0.0 0.0 0.00 0.00 0.00 77 1027.1
20181112025020 40 0.0 0.0 0.00 0.00 0.00 75 1027.4
20181112024021 40 0.0 0.0 0.00 0.00 0.00 76 1027.2
20181112023016 40 0.0 0.0 0.00 0.00 0.00 78 1026.8
20181112022021 40 0.0 0.0 0.00 0.00 0.00 77 1026.7
20181112021021 41 0.0 0.0 0.00 0.00 0.00 75 1026.6
20181112020021 41 0.0 0.0 0.00 0.00 0.00 79 1026.6
20181112015021 41 0.0 0.0 0.00 0.00 0.00 78 1026.8
20181112014021 41 0.0 0.0 0.00 0.00 0.00 78 1026.7
20181112013020 41 0.0 0.0 0.00 0.00 0.00 77 1026.9
20181112012015 41 0.0 0.0 0.00 0.00 0.00 75 1026.8